Flag for U.S.A. Weather past 2 weeks in Breckenridge, Colorado, U.S.A.

Now
61 °F

Sunny.


Feels Like: 61 °F
Forecast: 47 / 77 °F
Wind: 9 mph from West

Location: Copper Mountain - Red Cliff Pass

Current Time: Sep 17, 2014 at 6:07:26 PM

Latest Report: Sep 17, 2014 at 5:36 PM


Visibility: 10 mi

Pressure: 30.53 "Hg

Humidity: 25%

Dew point: 25 °F

Location of BreckenridgeLocation

Historic Weather in Breckenridge — Graph

°F

Breckenridge temperature yesterday

Maximum temperature yesterday: 63 °F (at 3:16 PM)
Minimum temperature yesterday: 45 °F (at 6:16 AM)
Average temperature yesterday: 53 °F

Past Weeks' High & Low Weather Summary

 TemperatureHumidityPressure
High64 °F (Sep 3, 1:56 PM)93% (Sep 10, 6:35 AM)30.69 "Hg (Sep 10, 6:35 AM)
Low34 °F (Sep 12, 6:36 AM)13% (Sep 3, 4:16 PM)30.31 "Hg (Sep 9, 2:56 PM)
Average49 °F50%30.54 "Hg
* Reported Sep 2 4:16 PM — Sep 17 4:56 PM, Breckenridge, Weather by CustomWeather, © 2014

Note: Actual official high and low records may vary slightly from our data, if they occured in-between our weather recording intervals... More about our weather records

Advertising

Breckenridge weather history for previous 24 hours

 ConditionsComfort  
Time TempWeatherWind HumidityBarometerVisibility
4:56 PM
Sep 17
61 °FSunny.12 mph27%30.53 "Hg10 mi
4:36 PM63 °FSunny.8 mph27%30.54 "Hg10 mi
4:16 PM64 °FSunny.6 mph26%30.54 "Hg10 mi
3:56 PM59 °FSunny.7 mph29%30.54 "Hg10 mi
3:35 PM61 °FSunny.8 mph29%30.54 "Hg10 mi
3:15 PM61 °FSunny.8 mph27%30.55 "Hg10 mi
2:56 PM59 °FScattered clouds.12 mph29%30.55 "Hg10 mi
2:36 PM61 °FBroken clouds.10 mph29%30.56 "Hg10 mi
2:15 PM57 °FBroken clouds.6 mph39%30.57 "Hg10 mi
1:54 PM54 °FRain. More clouds than sun.20 mph38%30.58 "Hg10 mi
1:36 PM54 °FMostly cloudy.18 mph38%30.57 "Hg10 mi
1:16 PM64 °FBroken clouds.12 mph24%30.59 "Hg10 mi
12:56 PM59 °FSunny.7 mph29%30.59 "Hg10 mi
12:36 PM55 °FBroken clouds.10 mph36%30.59 "Hg10 mi
11:56 AM61 °FScattered clouds.7 mph31%30.59 "Hg10 mi
11:35 AM59 °FSunny.8 mph31%30.60 "Hg10 mi
11:16 AM59 °FSunny.6 mph34%30.60 "Hg10 mi
10:55 AM59 °FSunny.8 mph31%30.60 "Hg10 mi
10:36 AM57 °FSunny.7 mph33%30.60 "Hg10 mi
10:16 AM55 °FSunny.9 mph36%30.60 "Hg10 mi
9:56 AM54 °FSunny.10 mph35%30.60 "Hg10 mi
9:36 AM54 °FSunny.8 mph38%30.61 "Hg10 mi
9:16 AM55 °FSunny.3 mph38%30.60 "Hg10 mi
8:56 AM54 °FSunny.6 mph41%30.60 "Hg10 mi
8:36 AM54 °FSunny.6 mph41%30.59 "Hg10 mi
8:16 AM54 °FSunny.6 mph38%30.59 "Hg10 mi
7:56 AM54 °FSunny.5 mph41%30.59 "Hg10 mi
7:36 AM52 °FClear.6 mph41%30.59 "Hg10 mi
7:16 AM52 °FClear.8 mph44%30.59 "Hg10 mi
6:56 AM48 °FClear.3 mph46%30.59 "Hg10 mi
6:36 AM48 °FClear.7 mph46%30.58 "Hg10 mi
6:16 AM52 °FClear.8 mph44%30.58 "Hg10 mi
5:55 AM50 °FClear.8 mph43%30.58 "Hg10 mi
5:36 AM50 °FClear.9 mph43%30.58 "Hg10 mi
5:16 AM52 °FClear.9 mph41%30.57 "Hg10 mi
4:56 AM52 °FClear.8 mph41%30.57 "Hg10 mi
4:36 AM52 °FClear.5 mph41%30.57 "Hg10 mi
4:16 AM52 °FClear.No wind41%30.57 "Hg10 mi
3:56 AM52 °FClear.No wind41%30.58 "Hg10 mi
3:36 AM52 °FClear.7 mph41%30.59 "Hg10 mi
3:16 AM50 °FClear.9 mph43%30.59 "Hg10 mi
2:56 AM50 °FClear.13 mph47%30.59 "Hg10 mi
2:36 AM52 °FClear.12 mph41%30.59 "Hg10 mi
2:16 AM52 °FClear.6 mph44%30.59 "Hg10 mi
1:56 AM54 °FClear.6 mph41%30.59 "Hg10 mi
1:36 AM54 °FClear.14 mph41%30.60 "Hg10 mi
1:16 AM52 °FClear.14 mph41%30.60 "Hg10 mi
12:56 AM54 °FClear.12 mph41%30.61 "Hg10 mi
12:36 AM54 °FClear.12 mph38%30.61 "Hg10 mi
11:56 PM
Sep 16
54 °FClear.8 mph41%30.62 "Hg10 mi
11:36 PM52 °FClear.7 mph41%30.62 "Hg10 mi
11:16 PM54 °FClear.9 mph41%30.62 "Hg10 mi
10:56 PM54 °FClear.5 mph41%30.62 "Hg10 mi
10:36 PM54 °FClear.6 mph41%30.63 "Hg10 mi
10:16 PM54 °FClear.6 mph41%30.64 "Hg10 mi
9:56 PM54 °FClear.6 mph41%30.64 "Hg10 mi
9:36 PM54 °FClear.10 mph41%30.64 "Hg10 mi
9:16 PM54 °FClear.8 mph41%30.64 "Hg10 mi
8:56 PM54 °FClear.9 mph41%30.64 "Hg10 mi
8:36 PM54 °FClear.12 mph41%30.64 "Hg10 mi
8:16 PM54 °FClear.14 mph41%30.63 "Hg10 mi
7:56 PM54 °FSunny.13 mph41%30.62 "Hg10 mi
7:36 PM54 °FSunny.16 mph38%30.62 "Hg10 mi
7:16 PM54 °FSunny.17 mph35%30.62 "Hg10 mi
6:56 PM55 °FSunny.16 mph33%30.62 "Hg10 mi
6:36 PM59 °FSunny.16 mph29%30.62 "Hg10 mi
6:16 PM59 °FSunny.17 mph27%30.62 "Hg10 mi
Weather by CustomWeather, © 2014

See weather overviewHow to use our weather pages